Temperature
23 21 20 21 21 22 22 22 21 21 21 20 19 18 17 17 17 17 17 17 17 17 17 17 17 17 17 17 17 17 17 17 17 17 17 17 16 16 16 16 15 15 15 15
21 21 22 22 22 22 21 21 20 20 20 20 18 18 18 17 17 17 17 17 17 17 17 17 17 17 17 18 18 17 17 17 17 17 17 17 16 16 16 15 15 15 15 15
22 22 24 24 23 22 21 21 21 20 20 19 19 19 18 17 17 17 17 17 17 17 17 17 17 17 17 17 18 17 17 17 17 17 17 16 16 16 15 15 15 15 15 14
21 22 24 24 23 23 21 22 21 20 19 18 19 18 18 17 17 17 17 17 17 17 17 17 17 17 17 17 17 17 17 17 17 17 16 16 16 16 15 15 15 15 14 14
22 23 24 23 24 23 22 21 20 19 18 18 18 18 17 17 17 17 17 17 18 18 18 17 17 17 17 17 17 17 17 17 17 16 16 16 16 16 15 15 15 14 14 14
22 23 24 24 23 22 21 20 18 16 16 18 18 18 18 16 17 17 17 18 18 18 18 18 17 17 17 17 17 17 17 17 16 16 16 16 16 15 15 15 14 14 14 14
23 23 23 23 22 21 20 19 18 19 17 18 17 17 17 18 18 18 18 18 18 18 18 18 18 17 17 17 17 17 17 17 16 16 16 16 15 15 15 14 14 14 14 13
22 22 23 23 22 20 20 19 19 19 18 18 17 17 18 19 19 19 19 19 19 19 19 18 18 18 18 18 17 17 17 17 16 16 16 15 15 15 14 14 14 13 13 13
21 21 23 23 23 21 20 19 18 17 18 18 18 17 18 18 18 18 19 19 19 19 19 19 19 19 18 18 18 18 17 17 17 16 16 15 15 15 14 14 14 13 13 13
21 22 23 23 23 21 20 17 16 17 18 19 19 19 18 19 18 17 17 18 19 20 20 20 19 19 19 19 18 18 18 17 17 16 16 15 15 15 14 14 13 13 13 13
20 21 22 22 22 21 19 18 16 15 16 17 19 19 19 19 18 18 18 19 20 20 20 20 20 20 19 19 18 18 18 17 17 16 16 15 15 15 14 14 13 13 13 13
19 18 19 21 21 21 20 19 16 18 17 16 17 18 20 19 18 19 19 20 21 21 21 21 21 20 20 19 19 18 18 17 17 16 16 15 15 15 14 14 14 13 13 13
19 18 19 20 20 20 20 19 17 16 15 15 17 19 20 19 18 19 20 21 21 21 21 21 21 20 20 20 19 19 18 18 17 16 16 16 15 15 15 14 14 13 13 13
19 18 19 20 20 20 20 19 17 17 16 16 17 19 20 19 18 18 20 21 21 22 22 21 21 21 21 20 20 19 19 18 17 17 16 16 16 15 15 14 14 14 13 13
18 18 18 19 20 20 21 20 19 18 18 18 19 18 20 19 19 20 21 21 21 21 21 22 21 21 21 20 20 19 19 18 18 17 16 16 16 15 15 14 14 14 14 13
16 18 19 20 20 20 21 21 20 20 19 19 19 19 19 19 20 20 20 21 21 22 22 22 22 22 21 21 20 20 19 18 18 17 17 16 16 15 15 15 14 14 14 13
15 17 18 19 20 20 20 20 20 20 19 19 19 20 19 18 18 19 21 21 22 23 23 23 23 22 22 22 21 20 19 18 18 17 17 16 16 16 15 15 15 14 14 14
15 15 15 17 19 20 20 20 20 20 19 18 18 18 18 18 20 21 22 23 23 24 24 24 23 23 22 22 21 20 19 19 18 18 17 17 16 16 16 15 15 15 14 14
14 15 15 16 18 19 20 20 19 19 19 18 17 18 18 19 19 20 21 23 24 24 24 24 24 23 22 21 21 20 19 19 18 18 17 17 16 16 16 15 15 15 14 14
14 14 15 15 18 18 19 20 19 19 19 18 17 17 17 18 18 19 22 23 23 24 24 24 23 23 22 21 20 20 19 19 18 18 18 17 17 16 16 15 15 15 14 14
15 15 15 15 17 17 18 18 19 19 19 18 17 17 17 17 18 20 22 23 23 23 23 23 23 22 22 21 20 20 19 19 19 18 17 17 16 16 16 15 15 14 14 14
15 15 15 14 16 17 18 18 18 18 18 18 18 18 18 19 19 20 21 22 23 23 23 22 22 22 21 20 20 19 19 19 18 17 17 16 16 16 15 15 15 14 14 13
14 14 14 14 16 16 16 17 17 17 17 18 18 19 19 19 19 20 21 21 22 22 22 22 21 21 20 19 19 19 18 18 17 17 16 16 16 15 15 15 14 14 13 13
14 13 13 14 15 15 17 17 17 18 18 18 18 18 19 18 19 19 19 20 20 20 20 20 20 20 19 18 18 18 17 17 17 16 16 16 15 15 14 14 14 13 13 13
15 13 13 14 14 15 17 17 17 18 18 18 18 18 18 18 19 19 19 19 19 19 19 19 19 19 18 18 17 17 17 16 16 16 15 15 15 14 14 14 13 13 13 12
13 14 14 15 15 15 16 17 17 17 17 17 17 17 17 18 18 18 18 18 18 18 18 18 18 17 17 17 16 16 16 16 15 15 15 14 14 14 13 13 13 13 12 12
Wind_Speed
2 2 5 7 8 7 4 4 6 4 0 2 1 1 1 1 3 3 4 5 6 5 5 5 6 6 7 7 7 6 6 5 6 4 4 4 3 2 2 2 3 4 5 5
2 5 9 6 5 5 4 4 4 2 2 2 1 1 1 2 3 4 5 7 6 6 5 5 5 5 6 7 8 7 6 6 5 4 4 3 4 3 2 2 3 3 3 4
8 7 2 2 2 3 4 6 5 4 2 3 2 2 1 1 1 2 4 6 7 9 9 7 6 5 6 8 8 8 7 6 6 6 5 5 4 4 3 2 2 2 2 3
7 7 3 3 4 5 5 5 5 5 4 1 2 2 4 3 3 5 6 7 8 9 8 8 8 7 7 7 7 7 6 6 5 6 6 6 4 3 2 1 1 2 3 3
7 3 2 4 4 5 3 4 5 4 4 2 2 2 6 2 5 9 9 10 10 10 11 10 9 8 7 7 7 7 6 6 5 5 6 6 5 3 3 3 3 3 4 4
7 3 4 4 1 4 6 6 7 6 5 1 2 3 6 5 8 8 9 11 11 11 10 9 8 7 6 6 6 7 7 5 5 6 6 7 7 6 5 4 3 2 2 3
5 4 3 4 5 3 5 6 4 4 4 5 2 2 8 7 7 10 12 12 11 10 10 10 10 9 9 9 8 7 7 6 6 6 6 6 7 7 7 5 4 3 2 1
4 6 4 5 7 8 6 8 7 5 5 4 2 5 7 4 5 6 8 10 10 10 10 11 12 11 11 10 9 9 8 7 6 7 6 5 6 5 4 4 4 4 3 2
7 6 3 2 3 9 7 4 6 7 3 1 5 7 8 2 3 5 7 9 11 12 12 12 12 11 11 11 11 11 10 8 7 7 6 6 6 5 5 4 4 3 2 2
9 5 3 1 5 5 5 9 6 6 5 3 5 5 5 6 8 8 9 11 12 11 11 11 11 12 11 10 9 9 9 9 8 8 7 6 6 6 5 5 5 4 3 2
5 5 3 1 4 6 5 5 6 5 5 6 3 7 7 10 10 12 13 13 13 13 13 12 11 11 10 9 9 9 9 8 7 8 7 7 6 6 5 5 5 5 4 4
4 5 2 4 2 3 5 7 8 6 5 5 4 8 6 9 9 11 12 12 12 13 12 11 10 10 9 10 10 10 10 9 9 8 7 7 6 6 6 5 5 5 4 4
6 6 2 4 4 0 3 5 5 6 6 6 5 7 4 3 6 8 9 10 10 11 11 10 9 10 11 11 11 11 11 10 9 8 8 7 6 6 7 6 5 5 5 4
5 4 7 9 7 5 4 5 6 7 5 6 8 8 6 5 8 9 9 10 10 11 12 11 11 11 11 11 11 11 11 10 9 9 8 8 8 8 8 7 6 6 5 5
5 4 6 6 4 4 5 6 8 8 8 9 9 9 11 9 11 11 10 10 9 10 12 13 13 12 11 11 10 10 10 10 10 9 9 10 8 7 6 6 6 6 5 6
3 4 3 2 3 4 4 6 9 9 6 7 6 9 9 5 5 6 9 11 12 13 14 14 13 13 13 13 13 11 11 10 10 10 10 9 7 7 7 7 6 6 6 5
3 5 4 3 2 1 5 7 8 6 6 7 9 10 3 3 7 10 10 11 13 14 14 14 15 15 15 15 14 14 12 10 10 10 9 8 8 8 8 7 6 7 7 5
5 4 4 2 2 5 8 2 4 5 5 6 7 7 6 7 6 5 7 11 12 12 13 13 12 12 12 11 11 11 10 10 11 10 9 9 9 9 7 7 7 7 5 5
5 6 4 4 3 6 5 3 4 5 5 5 5 6 4 2 2 1 3 6 9 11 11 11 11 10 10 11 11 11 10 10 10 10 10 10 10 9 8 8 8 6 5 6
4 4 5 4 4 7 7 2 2 3 5 3 3 3 1 4 3 4 3 4 5 4 5 7 8 8 9 9 11 12 11 10 11 11 10 9 9 9 9 9 7 5 6 7
2 3 4 4 4 7 5 1 4 4 7 2 3 2 2 3 4 2 0 2 3 4 4 6 8 8 8 10 11 11 10 11 10 7 6 7 7 8 7 6 5 5 5 5
5 5 5 5 4 7 2 2 5 6 2 0 1 1 2 1 2 3 3 3 4 5 6 6 7 6 6 9 10 9 9 8 6 6 6 6 6 6 5 6 5 5 5 6
5 6 5 7 7 4 2 3 2 1 1 1 1 1 3 2 3 4 4 5 5 6 6 6 8 8 6 6 8 8 6 6 7 6 5 4 4 4 4 5 5 4 5 5
3 2 2 4 6 5 4 3 2 2 2 0 1 2 4 5 4 5 5 6 6 6 6 6 9 8 6 5 5 5 5 6 6 5 4 3 4 3 3 3 4 4 5 6
4 4 3 5 6 4 3 2 2 2 3 4 4 4 4 6 5 5 5 5 5 6 5 6 8 7 5 5 4 4 5 6 6 4 3 3 3 3 3 4 5 6 7 7
5 7 6 7 6 4 2 1 3 6 5 5 6 7 6 5 5 6 6 5 5 6 6 7 7 6 5 5 4 3 4 6 6 3 2 2 2 2 3 4 5 8 10 12
Wind_Direction
110 97 229 226 201 206 213 232 264 273 233 110 132 170 218 172 143 145 152 156 156 154 142 137 127 129 135 131 131 132 133 131 127 125 125 122 121 107 90 96 106 114 121 121
29 259 239 223 200 198 211 230 257 297 72 105 111 303 232 182 189 184 174 171 170 156 142 147 140 151 151 145 142 142 145 139 137 133 127 123 120 110 96 68 70 82 112 122
209 242 233 199 227 209 222 200 215 199 77 61 80 351 251 233 197 193 181 171 168 165 168 164 158 157 151 153 154 156 149 141 136 127 112 97 82 71 66 56 50 33 86 122
234 252 237 255 248 184 238 220 179 148 127 298 106 252 264 214 213 210 198 186 182 177 176 178 170 166 165 163 150 143 141 137 134 132 131 133 133 134 147 132 97 48 63 100
240 227 205 242 246 179 183 83 95 105 123 70 36 172 278 184 215 221 206 198 195 185 182 185 180 174 170 156 145 140 141 136 134 134 137 130 123 127 119 105 93 70 51 64
248 241 211 203 73 127 127 75 62 56 73 358 239 186 267 216 211 207 202 201 197 187 181 179 175 166 160 150 146 148 145 143 142 139 138 141 140 139 133 126 117 92 64 53
286 276 220 153 112 75 102 95 34 355 2 257 253 223 253 240 212 196 194 197 194 186 179 177 177 176 171 168 167 160 156 157 153 144 144 149 150 152 154 153 148 139 118 97
217 279 236 186 174 172 176 146 160 206 233 277 295 247 256 257 214 192 183 181 180 184 185 187 188 185 182 179 175 170 171 166 162 156 156 155 154 152 156 160 157 161 166 177
188 241 278 206 157 140 142 161 156 132 140 294 281 282 301 227 194 182 178 176 185 188 189 190 188 186 185 183 183 180 175 171 173 169 162 162 163 163 165 162 159 165 179 186
168 215 268 196 92 50 133 137 106 126 149 254 292 276 249 227 208 195 192 194 196 191 190 191 190 189 189 187 181 176 176 179 178 173 174 177 177 176 170 165 175 184 194 190
154 172 282 55 170 173 119 108 111 115 148 159 251 273 225 206 197 194 200 199 195 193 195 195 194 190 184 177 175 179 179 176 177 180 180 174 177 176 173 180 191 193 197 198
151 137 221 257 261 168 163 166 151 154 198 176 184 266 263 207 198 191 197 198 195 194 195 193 188 181 179 181 183 184 182 183 185 181 176 178 175 173 180 194 200 196 203 211
136 123 102 345 342 301 167 160 153 129 123 155 176 261 303 201 195 198 196 196 192 190 188 185 182 185 189 189 188 187 187 188 181 173 174 177 180 185 196 204 203 202 209 220
120 135 175 197 214 203 198 176 156 138 155 191 216 245 274 227 210 207 201 195 189 189 189 187 189 193 193 191 190 188 190 185 177 174 179 188 195 198 202 204 205 208 210 220
120 178 211 228 222 194 207 198 179 190 191 190 225 227 246 227 213 208 196 186 184 189 192 193 195 195 191 189 189 188 187 182 177 177 189 201 201 198 199 205 211 213 217 227
112 165 172 245 221 206 228 227 207 213 207 219 242 258 250 240 201 197 189 183 192 199 199 198 196 192 192 193 191 187 187 183 176 184 198 200 194 196 204 210 211 214 224 230
138 143 144 232 281 77 253 228 204 209 207 192 217 241 255 216 205 203 200 195 201 204 202 198 197 196 196 194 188 189 188 176 178 190 197 196 195 202 209 210 207 217 224 226
148 138 144 159 106 226 244 234 187 198 225 218 238 257 245 239 232 206 190 194 204 205 201 200 197 195 194 187 183 178 169 172 184 193 200 199 197 206 207 205 214 220 219 223
154 144 130 139 194 265 282 214 169 188 245 216 233 267 267 238 107 308 214 204 209 204 199 197 191 185 178 176 172 161 168 175 185 198 204 202 199 203 204 210 218 217 214 227
78 105 123 141 180 232 244 206 148 134 274 227 207 244 237 121 143 250 251 211 212 188 176 170 157 152 164 168 157 161 173 179 196 204 206 202 198 200 206 214 217 212 213 230
91 89 144 170 213 259 256 235 126 168 244 251 202 206 157 166 202 269 186 175 169 148 145 145 147 155 167 156 155 167 176 196 203 193 192 195 197 201 208 211 214 216 222 235
177 163 177 157 195 252 269 138 181 218 275 158 157 141 148 178 44 44 61 91 104 107 109 125 134 135 134 145 155 167 188 195 167 163 178 192 196 202 206 205 217 218 220 237
202 194 188 191 213 251 255 234 257 199 227 245 171 75 121 95 52 54 57 68 77 91 104 113 118 112 110 136 153 168 185 155 146 155 176 186 188 198 199 201 216 223 221 233
250 171 177 255 268 263 262 255 241 194 187 73 74 74 94 93 77 67 65 70 75 78 93 103 109 112 116 129 142 153 143 143 146 162 178 182 190 207 215 219 221 227 234 241
227 178 203 254 273 302 297 247 199 124 95 79 71 79 98 106 93 89 79 74 85 89 93 104 114 122 128 127 129 129 134 139 146 160 175 187 200 214 231 237 235 235 237 233
203 192 191 228 229 200 256 325 106 103 89 92 87 74 69 92 99 90 83 81 86 90 93 97 101 104 107 112 113 111 126 139 144 155 174 190 210 230 242 258 275 253 249 259
Height
1490 1495 1498 1495 1494 1494 1496 1501 1503 1499 1494 1496 1500 1501 1500 1499 1500 1500 1501 1501 1503 1505 1507 1509 1511 1514 1516 1519 1522 1525 1529 1531 1533 1535 1538 1540 1542 1544 1545 1547 1548 1548 1549 1549
1494 1495 1487 1485 1487 1491 1495 1501 1501 1497 1494 1497 1501 1502 1499 1499 1500 1500 1500 1501 1501 1504 1507 1510 1513 1515 1517 1519 1522 1526 1529 1532 1534 1536 1538 1540 1541 1543 1545 1546 1547 1548 1548 1549
1492 1486 1481 1483 1486 1491 1494 1498 1498 1499 1497 1498 1502 1505 1502 1500 1500 1500 1501 1501 1502 1504 1506 1510 1512 1515 1517 1519 1523 1526 1529 1531 1533 1535 1537 1539 1541 1542 1544 1545 1546 1547 1548 1548
1488 1481 1480 1482 1484 1486 1494 1486 1489 1495 1504 1510 1506 1518 1504 1500 1500 1499 1500 1501 1503 1505 1507 1509 1511 1514 1517 1520 1523 1527 1529 1531 1533 1535 1537 1539 1540 1541 1543 1544 1545 1546 1547 1547
1484 1478 1479 1482 1480 1480 1486 1485 1490 1497 1505 1512 1510 1516 1510 1501 1501 1498 1497 1499 1501 1504 1507 1509 1511 1514 1517 1520 1523 1526 1529 1531 1533 1535 1537 1538 1539 1541 1542 1543 1544 1545 1545 1546
1478 1475 1475 1476 1477 1478 1483 1490 1497 1506 1512 1520 1512 1516 1511 1502 1495 1492 1494 1496 1499 1502 1505 1508 1511 1514 1517 1520 1522 1526 1529 1531 1533 1535 1536 1537 1539 1540 1541 1542 1543 1543 1544 1545
1481 1475 1472 1472 1480 1483 1485 1500 1517 1519 1526 1522 1510 1512 1506 1488 1485 1485 1488 1492 1495 1499 1503 1507 1510 1513 1516 1519 1522 1525 1528 1530 1532 1534 1535 1536 1538 1539 1540 1541 1541 1542 1543 1543
1489 1489 1473 1470 1474 1483 1487 1494 1515 1524 1526 1520 1511 1511 1495 1481 1480 1482 1485 1489 1493 1497 1501 1504 1507 1511 1514 1517 1521 1524 1527 1529 1531 1533 1535 1536 1537 1538 1538 1539 1540 1541 1541 1541
1487 1486 1469 1467 1467 1474 1487 1493 1494 1511 1516 1520 1513 1503 1488 1479 1480 1481 1484 1487 1490 1494 1498 1501 1505 1509 1513 1516 1519 1522 1525 1528 1530 1532 1533 1534 1536 1536 1537 1538 1539 1539 1540 1540
1473 1481 1471 1467 1468 1473 1477 1487 1501 1511 1521 1522 1511 1504 1497 1482 1480 1480 1482 1484 1486 1491 1495 1499 1502 1506 1510 1514 1518 1521 1524 1527 1529 1531 1532 1533 1535 1535 1536 1537 1537 1538 1538 1538
1469 1479 1477 1472 1473 1477 1482 1489 1497 1508 1510 1519 1519 1505 1476 1473 1473 1475 1477 1479 1482 1487 1491 1495 1499 1504 1508 1512 1516 1519 1522 1525 1527 1529 1531 1532 1533 1534 1535 1535 1536 1536 1537 1537
1468 1478 1485 1477 1470 1468 1472 1480 1491 1501 1507 1511 1514 1501 1465 1465 1466 1469 1472 1475 1479 1483 1488 1492 1497 1501 1505 1509 1513 1516 1519 1522 1525 1527 1529 1530 1532 1532 1533 1534 1534 1535 1535 1536
1466 1478 1489 1486 1482 1474 1473 1476 1482 1491 1502 1511 1511 1493 1464 1464 1465 1467 1469 1473 1476 1481 1485 1490 1494 1498 1502 1506 1509 1513 1516 1519 1522 1525 1527 1528 1529 1530 1531 1532 1533 1533 1534 1534
1461 1474 1482 1487 1482 1474 1474 1475 1480 1486 1498 1503 1496 1482 1467 1464 1464 1465 1467 1470 1473 1477 1481 1486 1490 1494 1498 1502 1506 1510 1513 1516 1519 1522 1524 1526 1527 1528 1529 1530 1531 1531 1532 1532
1460 1471 1471 1469 1466 1467 1467 1468 1473 1477 1480 1485 1479 1476 1463 1459 1459 1460 1462 1466 1471 1474 1478 1481 1485 1490 1494 1499 1503 1506 1510 1513 1516 1519 1521 1523 1524 1526 1527 1528 1528 1529 1529 1529
1461 1467 1468 1467 1463 1464 1465 1463 1465 1468 1469 1471 1469 1467 1453 1453 1455 1457 1459 1462 1466 1469 1472 1476 1481 1485 1490 1494 1498 1502 1506 1509 1513 1515 1517 1520 1521 1522 1524 1525 1526 1526 1527 1527
1464 1467 1473 1475 1466 1465 1471 1460 1460 1462 1460 1462 1466 1457 1451 1452 1452 1452 1455 1458 1461 1464 1468 1472 1475 1480 1485 1489 1494 1498 1502 1506 1509 1512 1514 1516 1518 1519 1521 1522 1523 1523 1524 1524
1464 1469 1475 1476 1473 1481 1464 1451 1452 1455 1455 1454 1453 1450 1448 1447 1446 1448 1451 1453 1456 1460 1464 1468 1472 1476 1481 1486 1490 1495 1499 1503 1506 1508 1511 1513 1514 1516 1517 1518 1519 1519 1520 1520
1459 1466 1474 1480 1479 1471 1458 1451 1451 1455 1454 1449 1449 1447 1445 1445 1446 1447 1448 1451 1453 1456 1460 1464 1468 1473 1477 1482 1487 1491 1495 1499 1502 1504 1507 1509 1511 1512 1513 1514 1515 1516 1516 1515
1460 1462 1472 1477 1477 1477 1458 1447 1447 1452 1455 1446 1445 1445 1444 1444 1450 1448 1446 1448 1451 1454 1458 1461 1465 1470 1474 1478 1483 1487 1491 1494 1497 1500 1503 1505 1507 1508 1509 1511 1511 1511 1511 1511
1465 1468 1471 1475 1475 1465 1449 1446 1447 1461 1455 1444 1443 1443 1443 1444 1446 1445 1445 1447 1449 1452 1456 1460 1463 1467 1471 1475 1479 1483 1487 1490 1494 1497 1500 1502 1503 1504 1506 1506 1507 1507 1507 1506
1464 1468 1471 1473 1474 1467 1445 1445 1449 1449 1443 1442 1442 1442 1443 1444 1444 1444 1445 1446 1448 1451 1455 1458 1461 1464 1469 1473 1477 1480 1484 1487 1491 1494 1496 1498 1499 1500 1501 1502 1502 1502 1502 1501
1459 1458 1460 1461 1458 1447 1445 1445 1444 1444 1443 1442 1442 1442 1443 1444 1444 1445 1446 1447 1449 1451 1454 1457 1460 1464 1467 1471 1475 1478 1482 1485 1487 1490 1492 1493 1495 1496 1497 1497 1497 1497 1496 1495
1454 1453 1454 1454 1447 1443 1442 1442 1442 1442 1442 1443 1443 1444 1444 1445 1446 1447 1447 1448 1450 1452 1455 1458 1460 1463 1466 1470 1473 1476 1480 1482 1485 1487 1488 1490 1491 1492 1492 1492 1492 1492 1491 1490
1451 1452 1453 1451 1445 1442 1440 1441 1441 1442 1442 1443 1444 1445 1446 1446 1447 1448 1449 1451 1452 1454 1457 1459 1461 1464 1467 1470 1472 1475 1478 1480 1482 1483 1485 1486 1487 1487 1487 1487 1487 1486 1486 1485
1447 1448 1449 1446 1441 1442 1441 1441 1441 1442 1443 1445 1445 1446 1448 1448 1448 1449 1450 1453 1454 1456 1458 1460 1462 1465 1468 1470 1472 1474 1476 1478 1479 1480 1481 1482 1483 1483 1483 1483 1482 1481 1481 1479